星链-2141 (STARLINK-2141 )

导读

STARLINK-2141是美国SpaceX公司星链星座项目中的一颗低轨通信卫星,于2021年3月4日发射升空。作为星链全球卫星互联网组网的组成部分,它运行在近地轨道,旨在为全球尤其是偏远地区提供高速低延迟的宽带互联网服务。星链项目已大规模部署数千颗卫星,该卫星是星座扩展中的一员,助力实现全球网络覆盖,不过大规模低轨卫星部署也引发了太空交通与天文观测相关讨论。

基本信息
目录编号:
47731
目录名称:
STARLINK-2141
国际标识:
2021-017K
轨道中心:
EARTH
卫星名称:
星链-2141
卫星全名:
星链-2141 (STARLINK-2141 )
卫星状态:
已陨落 最后检测时间 2026-07-23
发射日期:
2021-03-04 UTC
国别 :
美国 (US)
星等 :
--
该卫星已列入 空间交会检测服务 Space Conjunction Data Service (SCDS) ,当前飞行风险评估等级: 无高风险
轨道信息
数据来源 国际轨道数据
星历时间: 2026-07-23T20:54:16+0800
轨道信息已过期50天
半长轴: 6541.905km
偏心率: 0.0004959
轨道倾角: 53.132°
近地点辐角 310.313°
升交点赤经 253.063°
平近点角 49.748°
近地点: 160.523km
远地点: 167.013km
周期: 87.764分钟
每日圈数: 16.407653
详细信息
固有亮度:
5
最大亮度:
2.5
卫星平台:
Starlink V1.0
覆盖范围:
全球
运营商:
太空探索技术公司
运营商所在国:
美国
制造商(研发单位):
太空探索技术公司
制造商所在国:
美国
使用方式:
暂无
卫星简介
星链(Starlink)计划是由太空探索技术公司(SpaceX)提出的一个巨型低轨卫星互联网星座项目,计划在2019年至2024年间在太空搭建由约1.2万颗卫星组成的“星链”网络,其中1584颗将部署在地球上空550千米处的近地轨道,并从2020年开始工作。该卫星仍在工作。
与全量物体交会距离演化趋势
与全量物体交会风险概率演化趋势